This demonstration page uses our WeatherBlox Daily Observations layout. Learn more.

Left ArrowRight Arrow

39.51506, -84.39828

Hourly Observations for September 29, 2021

Temp ( °F °C ) Dew Point ( °F °C ) Humidity (%) Winds ( mph kmh ) Pressure ( in mb ) Visibility ( mi km ) Precip ( " mm )
12:15 am 00:15 Clear 63 17 N/A N/A N 3 6 30.00 1016 10 16 N/A
12:35 am 00:35 Clear 63 17.2 63 17 99 99 NNE 5 7 30.00 1016 10 16 N/A
12:55 am 00:55 Clear 63 17 N/A N/A N 3 6 30.00 1016 10 16 N/A
1:15 am 01:15 Clear 61 16 N/A N/A N 3 6 30.00 1016 7 11 N/A
1:35 am 01:35 Clear 61 15.9 60 15.5 97 97 N 3 6 30.01 1016 10 16 N/A
1:55 am 01:55 Clear 60 15.6 58 14.5 93 93 N 6 9 30.02 1016 10 16 N/A
2:15 am 02:15 Clear 60 15.4 56 13.6 89 89 N 5 7 30.02 1016 10 16 N/A
2:35 am 02:35 Clear 59 15.1 56 13.2 89 89 NNE 6 9 30.03 1017 10 16 N/A
2:55 am 02:55 Clear 59 15 56 13.1 89 89 N 5 7 30.03 1017 10 16 N/A
3:15 am 03:15 Clear 58 14.7 56 13.4 92 92 N 5 7 30.03 1017 10 16 N/A
3:35 am 03:35 Clear 57 14 56 13.6 97 97 N 3 6 30.03 1017 10 16 N/A
3:55 am 03:55 Clear 57 13.9 56 13.5 97 97 NNE 3 6 30.03 1017 10 16 N/A
4:15 am 04:15 Clear 57 13.9 56 13.2 96 96 NNE 5 7 30.03 1017 10 16 N/A
4:35 am 04:35 Clear 57 13.9 55 13 94 94 NNE 5 7 30.04 1017 10 16 N/A
4:55 am 04:55 Clear 57 14 55 12.9 93 93 N N/A 30.05 1018 10 16 N/A
5:15 am 05:15 Clear 55 12.5 54 12.3 99 99 N N/A 30.05 1018 10 16 N/A
5:35 am 05:35 Clear 55 12.7 54 12.2 97 97 N 3 6 30.05 1018 10 16 N/A
5:55 am 05:55 Clear 54 12 54 12 100 100 N N/A 30.06 1018 10 16 N/A
6:15 am 06:15 Clear 55 12.9 55 12.7 99 99 N 3 6 30.06 1018 10 16 N/A
6:35 am 06:35 Clear 55 12.8 55 12.5 98 98 NNE 5 7 30.07 1018 10 16 N/A
6:55 am 06:55 Clear 54 12 54 12 100 100 N 3 6 30.07 1018 10 16 N/A
7:15 am 07:15 Clear 54 12 N/A N/A N 5 7 30.08 1019 10 16 N/A
7:35 am 07:35 Sunny 54 12 54 12 100 100 N 3 6 30.08 1019 10 16 N/A
7:55 am 07:55 Sunny 54 12 N/A N/A NNE 5 7 30.08 1019 10 16 N/A
8:15 am 08:15 Sunny 55 13 55 12.8 99 99 NE 5 7 30.09 1019 10 16 N/A
8:35 am 08:35 Sunny 58 14.3 55 12.9 91 91 NE 6 9 30.10 1019 10 16 N/A
8:55 am 08:55 Sunny 60 15.3 55 13 86 86 NE 6 9 30.10 1019 7 11 N/A
9:15 am 09:15 Hazy 61 16 56 13.1 83 83 ENE 6 9 30.10 1019 5 8 N/A
9:35 am 09:35 Sunny 62 16.4 56 13.1 81 81 NE 7 11 30.10 1019 10 16 N/A
9:55 am 09:55 Sunny 63 17.1 56 13.3 78 78 ENE 8 13 30.10 1019 10 16 N/A
10:15 am 10:15 Sunny 65 18.2 55 13 72 72 ENE 7 11 30.11 1020 10 16 N/A
10:35 am 10:35 Sunny 66 18.9 55 12.9 68 68 NE 7 11 30.11 1020 10 16 N/A
10:55 am 10:55 Sunny 67 19.6 55 13 66 66 NE 5 7 30.10 1019 10 16 N/A
11:15 am 11:15 Sunny 69 20.3 56 13.4 65 65 NNE 5 7 30.09 1019 10 16 N/A
11:35 am 11:35 Sunny 70 20.9 56 13.5 63 63 NNE 6 9 30.09 1019 10 16 N/A
11:55 am 11:55 Sunny 71 21.7 58 14.5 64 64 NNE 6 9 30.09 1019 10 16 N/A
12:15 pm 12:15 Sunny 73 22.5 58 14.7 61 61 NE 7 11 30.09 1019 10 16 N/A
12:35 pm 12:35 Sunny 73 23 60 15.3 62 62 NE 6 9 30.08 1019 10 16 N/A
12:55 pm 12:55 Sunny 74 23.3 58 14.7 59 59 N N/A 30.08 1019 10 16 N/A
1:15 pm 13:15 Sunny 75 23.8 59 15 58 58 N 3 6 30.08 1018 10 16 N/A
1:35 pm 13:35 Sunny 76 24.3 58 14.7 55 55 N N/A 30.07 1018 10 16 N/A
1:55 pm 13:55 Sunny 76 24.5 58 14.5 54 54 N 3 6 30.06 1018 10 16 N/A
2:15 pm 14:15 Sunny 76 24.7 55 12.9 48 48 N N/A 30.06 1018 10 16 N/A
2:35 pm 14:35 Sunny 79 26 49 9.5 35 35 NNE 5 7 30.05 1018 10 16 N/A
2:55 pm 14:55 Sunny 79 26.2 51 10.3 37 37 E 7 11 30.04 1017 10 16 N/A
3:15 pm 15:15 Sunny 79 26.1 49 9.5 35 35 ENE 5 7 30.04 1017 10 16 N/A
3:35 pm 15:35 Sunny 79 26.3 50 9.8 35 35 NE 5 7 30.04 1017 10 16 N/A
3:55 pm 15:55 Sunny 80 26.6 51 10.6 37 37 E 3 6 30.03 1017 10 16 N/A
4:15 pm 16:15 Sunny 81 27 49 9.5 33 33 ENE 5 7 30.03 1017 10 16 N/A
4:35 pm 16:35 Sunny 80 26.7 49 9.4 34 34 ENE 3 6 30.03 1017 10 16 N/A
4:55 pm 16:55 Sunny 80 26.7 49 9.2 33 33 ESE 3 6 30.02 1017 10 16 N/A
5:15 pm 17:15 Sunny 80 26.6 49 9.7 35 35 ENE 6 9 30.02 1017 10 16 N/A
5:35 pm 17:35 Sunny 80 26.4 47 8.1 31 31 ENE 5 7 30.01 1016 10 16 N/A
5:55 pm 17:55 Sunny 79 26 50 10.1 37 37 ENE 6 9 30.01 1016 10 16 N/A
6:15 pm 18:15 Sunny 78 25.6 52 11.2 41 41 NE 3 6 30.02 1017 10 16 N/A
6:35 pm 18:35 Sunny 76 24.4 55 12.9 49 49 NNE 3 6 30.02 1017 10 16 N/A
6:55 pm 18:55 Sunny 71 21.8 58 14.4 63 63 N 3 6 30.04 1017 10 16 N/A
7:15 pm 19:15 Sunny 66 19.1 61 16.1 83 83 N 5 7 30.05 1017 10 16 N/A
7:35 pm 19:35 Clear 65 18.2 60 15.7 85 85 N 3 6 30.05 1018 10 16 N/A
7:55 pm 19:55 Clear 63 17 59 15.1 89 89 N N/A 30.05 1018 10 16 N/A
8:15 pm 20:15 Clear 62 16.4 59 14.8 90 90 N N/A 30.06 1018 10 16 N/A
8:35 pm 20:35 Clear 60 15.6 57 14 90 90 N 3 6 30.07 1018 10 16 N/A
8:55 pm 20:55 Clear 60 15.4 57 13.8 90 90 N 3 6 30.08 1018 10 16 N/A
9:15 pm 21:15 Clear 58 14.4 56 13.4 94 94 N 3 6 30.08 1019 10 16 N/A
9:35 pm 21:35 Clear 58 14.3 56 13.2 93 93 N 3 6 30.09 1019 10 16 N/A
9:55 pm 21:55 Clear 57 13.7 55 12.9 95 95 N N/A 30.09 1019 10 16 N/A
10:15 pm 22:15 Clear 57 14.1 56 13.3 95 95 NNE 3 6 30.10 1019 10 16 N/A
10:35 pm 22:35 Clear 57 13.9 55 12.7 93 93 N 5 7 30.11 1020 10 16 N/A
10:55 pm 22:55 Clear 56 13.5 55 12.5 94 94 N N/A 30.12 1020 10 16 N/A
11:15 pm 23:15 Clear 56 13.3 54 12.3 94 94 NNE 5 7 30.13 1020 10 16 N/A
11:35 pm 23:35 Clear 55 12.6 53 11.9 96 96 N N/A 30.13 1020 10 16 N/A
11:55 pm 23:55 Clear with Mist and Fog 55 12.6 53 11.9 96 96 ENE 3 6 30.13 1020 4 6 N/A

Powered by AerisWeather